Location: Newark
(49.3808°N, 3.1844°E)
Time: 07:04:58
(UTC+00:00)

Vanguard 2 - All Passes

Search period start: 19 November 2019 00:00
Search period end: 29 November 2019 00:00
Orbit: 554 x 2937 km, 32.9° (Epoch: 18 November)

Date Brightness Start Highest point End Pass type
(mag) Time Alt. Az. Time Alt. Az. Time Alt. Az.
19 Nov - 06:24:46 10° S 06:27:08 11° SSE 06:29:20 10° SE visible
19 Nov - 08:29:51 10° SSW 08:35:31 18° S 08:39:50 10° SE daylight
19 Nov - 10:39:22 10° SW 10:43:11 16° SSW 10:46:16 10° SSE daylight
20 Nov - 06:39:15 10° SSW 06:44:51 15° SSE 06:49:23 10° SE daylight
20 Nov - 08:46:55 10° SW 08:53:12 20° S 08:57:49 10° SE daylight
20 Nov - 10:57:16 10° SW 11:00:43 15° SSW 11:03:34 10° SSE daylight
21 Nov - 06:55:17 10° SSW 07:02:34 19° SSE 07:08:04 10° SE daylight
21 Nov - 09:04:17 10° SW 09:10:51 22° S 09:15:36 10° SE daylight
21 Nov - 11:15:30 10° SW 11:18:11 13° SSW 11:20:29 10° S daylight
22 Nov - 05:06:15 10° S 05:11:25 13° SSE 05:15:52 10° SE visible
22 Nov - 07:11:56 10° SW 07:20:17 22° S 07:26:18 10° SE daylight
22 Nov - 09:21:50 10° SW 09:28:28 22° S 09:33:13 10° SE daylight
22 Nov - 11:34:51 10° SW 11:35:35 10° SSW 11:36:17 10° SSW daylight
23 Nov - 05:21:09 10° SSW 05:29:06 17° SSE 05:35:24 10° ESE visible
23 Nov - 07:28:57 10° SW 07:37:59 25° S 07:44:17 10° SE daylight
23 Nov - 09:39:35 10° WSW 09:46:01 21° SSW 09:50:42 10° SSE daylight
24 Nov - 05:37:08 10° SSW 05:46:47 22° SSE 05:54:02 10° ESE visible
24 Nov - 07:46:14 10° SW 07:55:39 27° S 08:02:06 10° SE daylight
24 Nov - 09:57:30 10° WSW 10:03:31 20° SSW 10:07:59 10° SSE daylight
25 Nov - 03:48:28 10° S 03:55:11 14° SSE 04:01:02 10° ESE visible
25 Nov - 05:53:40 10° SW 06:04:29 26° SSE 06:12:17 10° ESE visible
25 Nov - 08:03:43 10° WSW 08:13:18 28° S 08:19:47 10° SE daylight
25 Nov - 10:15:39 10° WSW 10:20:57 17° SSW 10:25:01 10° SSE daylight
26 Nov - 04:03:13 10° S 04:12:47 19° SSE 04:20:37 10° ESE visible
26 Nov - 06:10:34 10° SW 06:22:10 29° S 06:30:19 10° ESE visible
26 Nov - 08:21:23 10° WSW 08:30:53 28° SSW 08:37:21 10° SE daylight
26 Nov - 10:34:09 10° WSW 10:38:16 14° SSW 10:41:39 10° S daylight
27 Nov - 04:19:01 10° SSW 04:30:24 23° SSE 04:39:21 10° ESE visible
27 Nov - 06:27:46 10° SW 06:39:51 32° S 06:48:09 10° ESE visible
27 Nov - 08:39:11 10° WSW 08:48:25 27° SSW 08:54:46 10° SE daylight
27 Nov - 10:53:40 10° SW 10:55:31 11° SW 10:57:12 10° SSW daylight
28 Nov - 02:31:29 10° SSE 02:38:33 14° SE 02:45:00 10° ESE visible
28 Nov - 04:35:24 10° SSW 04:48:03 28° SSE 04:57:39 10° ESE visible
28 Nov - 06:45:11 10° WSW 06:57:30 34° S 07:05:54 10° ESE visible
28 Nov - 08:57:08 10° WSW 09:05:53 25° SSW 09:12:02 10° SSE daylight
